Snowfall_Accumulation
0.0 0.0 0.0 0.0 0.0 0.0 0.0 0.0 0.7 1.7 0.1 0.0 0.0 0.0 0.0 0.0 0.0 0.0 0.0 nan nan nan nan nan nan nan nan nan nan nan nan nan nan nan nan nan nan nan
0.0 0.0 0.0 0.0 0.0 0.0 0.0 0.0 0.1 0.8 1.1 0.0 0.0 0.0 0.0 0.0 0.0 0.0 0.0 nan nan nan nan nan nan nan nan nan nan nan nan nan nan nan nan nan nan nan
0.0 0.0 0.0 0.0 0.0 0.0 0.0 0.0 0.0 0.0 0.4 0.0 0.0 0.0 0.0 0.0 0.0 0.0 0.0 0.0 0.0 nan nan nan nan nan nan nan nan nan nan nan nan nan nan nan nan nan
0.0 0.0 0.0 0.0 0.0 0.0 0.0 0.0 0.0 0.0 0.0 0.0 0.0 0.0 0.0 0.0 0.0 0.0 0.0 0.0 0.0 nan nan nan nan nan nan nan nan nan nan nan nan nan nan nan nan nan
0.0 0.0 0.0 0.0 0.0 0.0 0.0 0.0 0.0 0.0 0.0 0.0 0.0 0.0 0.0 0.0 0.0 0.0 0.0 0.0 0.0 nan nan nan nan nan nan nan nan nan nan nan nan nan nan nan nan nan
0.0 0.0 0.0 0.0 0.0 0.0 0.0 0.0 0.2 0.1 0.0 0.0 0.0 0.0 0.0 0.0 0.0 0.0 0.0 0.0 0.0 0.0 nan nan nan nan nan nan nan nan nan nan nan nan nan nan nan nan
0.0 0.0 0.0 nan nan nan 0.0 0.2 0.1 0.1 0.1 0.2 0.0 0.0 0.0 0.0 0.0 0.0 0.0 0.0 0.0 0.0 0.0 0.0 0.0 0.0 0.0 nan nan nan nan nan nan nan nan nan nan nan
0.0 0.0 0.0 0.0 0.0 nan nan nan nan 0.3 0.1 0.1 0.1 0.1 0.1 0.0 0.0 0.0 0.0 0.0 0.0 0.0 0.0 0.0 0.0 0.0 0.0 0.0 nan nan nan nan nan nan nan nan nan nan
0.0 0.0 0.0 0.0 nan 0.0 nan nan nan nan nan 0.1 0.0 0.0 0.0 0.0 0.0 0.0 0.0 0.0 0.0 0.0 0.0 0.0 0.0 0.0 0.0 0.0 nan nan nan nan nan nan nan nan nan nan
0.0 0.0 0.0 0.0 0.0 0.0 0.2 0.2 0.0 0.0 0.0 0.0 0.0 0.0 0.0 0.0 0.0 0.0 0.0 0.0 0.3 0.0 0.0 2.0 0.3 0.9 0.0 0.0 nan nan nan nan nan nan nan nan nan nan
0.0 0.0 0.0 0.0 nan nan 0.5 0.2 0.0 0.0 nan nan nan nan nan nan nan 1.0 2.3 2.6 5.3 0.0 0.0 0.0 0.8 1.7 1.9 1.6 1.5 nan nan nan nan nan nan nan nan nan
0.3 0.2 nan 0.1 nan nan 1.3 0.8 1.4 0.1 0.0 0.0 0.0 0.0 nan nan nan 0.0 0.2 2.9 2.4 2.2 0.0 0.0 0.0 0.9 2.3 1.6 1.7 1.4 1.5 nan nan nan nan nan nan 0.0
1.8 1.5 1.2 nan nan nan nan 1.8 1.3 0.3 0.3 0.7 0.0 0.0 0.0 0.0 0.0 0.0 0.0 0.3 2.0 1.3 0.0 0.0 0.5 0.5 1.4 1.8 1.9 2.0 1.7 1.8 1.6 0.0 nan nan nan 0.0
2.4 2.0 2.9 nan nan nan 0.6 nan nan 0.7 6.1 5.2 3.6 2.3 1.9 1.5 0.0 0.0 0.1 0.0 0.0 0.3 0.0 0.1 2.8 0.7 1.1 2.2 2.0 1.8 2.0 2.0 2.2 0.8 2.7 nan nan nan
5.2 4.2 nan nan nan 1.3 nan nan 0.6 5.4 6.6 7.0 4.3 2.4 1.5 0.3 0.1 0.8 0.3 0.0 0.0 0.4 0.1 0.3 2.2 0.5 1.5 2.1 2.1 2.7 2.9 1.9 3.8 2.0 2.3 2.7 1.8 2.0
1.1 4.0 0.7 2.5 0.8 1.7 2.2 3.0 3.4 3.6 3.9 5.0 3.2 1.8 1.7 2.7 3.0 1.9 2.8 2.7 2.9 2.3 0.9 0.7 0.5 0.5 3.3 1.6 1.2 2.5 2.0 2.4 2.0 1.9 3.5 2.3 2.1 2.4
5.2 11.0 6.6 4.9 4.5 3.4 3.9 3.7 3.5 3.4 4.6 6.0 5.3 3.8 2.9 2.5 2.8 2.7 2.8 2.8 4.7 3.2 2.4 2.1 0.9 1.4 1.9 1.2 5.3 1.7 2.0 1.9 1.9 2.7 3.1 2.5 1.9 1.8
5.7 8.4 14.6 15.6 9.2 4.6 6.8 5.9 5.4 4.0 3.9 4.6 6.5 4.3 4.2 4.7 3.6 4.1 3.8 3.9 4.1 3.1 2.6 1.8 2.3 3.5 3.2 4.5 2.4 1.7 1.4 1.9 1.9 2.4 2.8 4.1 2.1 1.9
8.5 8.3 15.4 17.7 10.7 4.2 4.8 4.7 6.6 6.7 3.3 5.1 6.2 7.4 7.6 5.7 6.5 5.3 6.0 5.2 5.2 3.2 2.4 3.6 3.6 3.6 5.4 11.2 3.0 nan 3.4 2.3 5.0 5.6 3.7 4.0 3.4 2.6
4.8 7.7 10.7 11.1 5.7 4.1 4.2 4.9 5.9 8.7 8.8 7.2 9.8 13.2 15.1 10.3 8.8 6.2 5.6 6.8 4.9 3.1 2.8 1.7 2.4 2.6 4.0 7.9 13.4 11.8 nan 8.4 7.3 7.1 4.8 4.3 3.9 nan
4.7 4.2 9.2 7.4 5.9 4.6 13.3 14.4 17.8 16.4 16.8 21.0 13.3 12.4 27.4 7.4 8.2 6.1 6.7 4.8 4.1 2.4 2.6 2.6 2.6 0.5 2.3 6.2 23.2 12.1 11.9 nan 6.3 5.7 4.4 5.0 3.6 2.4
8.1 4.9 5.5 5.9 8.5 7.5 16.1 24.2 22.2 22.2 16.1 11.8 21.5 31.3 29.2 12.9 10.6 9.1 11.8 10.8 4.4 5.3 3.0 2.3 1.7 1.2 2.3 3.1 4.4 15.9 6.7 7.6 nan nan nan nan 5.5 5.6
14.1 6.2 9.4 12.3 14.7 15.1 6.8 13.5 6.3 13.9 11.9 12.0 11.5 12.1 48.9 12.3 8.4 8.9 9.6 6.4 4.4 4.9 3.5 3.5 2.0 1.7 2.4 2.1 3.6 6.3 5.4 9.5 4.4 4.6 9.4 nan nan nan
Water_Equivalent
0.00 0.00 0.00 0.00 0.00 0.00 0.00 0.00 0.14 0.26 0.01 0.00 0.00 0.00 0.00 0.00 0.00 0.00 0.00 nan nan nan nan nan nan nan nan nan nan nan nan nan nan nan nan nan nan nan
0.00 0.00 0.00 0.00 0.00 0.00 0.00 0.00 0.01 0.13 0.16 0.00 0.00 0.00 0.00 0.00 0.00 0.00 0.00 nan nan nan nan nan nan nan nan nan nan nan nan nan nan nan nan nan nan nan
0.00 0.00 0.00 0.00 0.00 0.00 0.00 0.00 0.00 0.00 0.06 0.00 0.00 0.00 0.00 0.00 0.00 0.00 0.00 0.00 0.00 nan nan nan nan nan nan nan nan nan nan nan nan nan nan nan nan nan
0.00 0.00 0.00 0.00 0.00 0.00 0.00 0.00 0.00 0.00 0.00 0.00 0.00 0.00 0.00 0.00 0.00 0.00 0.00 0.00 0.00 nan nan nan nan nan nan nan nan nan nan nan nan nan nan nan nan nan
0.00 0.00 0.00 0.00 0.00 0.00 0.00 0.00 0.00 0.00 0.00 0.00 0.00 0.00 0.00 0.00 0.00 0.00 0.00 0.00 0.00 nan nan nan nan nan nan nan nan nan nan nan nan nan nan nan nan nan
0.00 0.00 0.00 0.00 0.00 0.00 0.00 0.01 0.03 0.02 0.00 0.00 0.00 0.00 0.00 0.00 0.00 0.00 0.00 0.00 0.00 0.00 nan nan nan nan nan nan nan nan nan nan nan nan nan nan nan nan
0.00 0.00 0.00 nan nan nan 0.01 0.03 0.02 0.02 0.02 0.02 0.01 0.00 0.00 0.00 0.00 0.00 0.00 0.00 0.00 0.00 0.00 0.00 0.00 0.00 0.00 nan nan nan nan nan nan nan nan nan nan nan
0.00 0.00 0.00 0.00 0.00 nan nan nan nan 0.03 0.02 0.01 0.01 0.01 0.01 0.00 0.00 0.00 0.00 0.00 0.00 0.00 0.00 0.00 0.00 0.00 0.00 0.00 nan nan nan nan nan nan nan nan nan nan
0.00 0.00 0.00 0.00 nan 0.00 nan nan nan nan nan 0.01 0.00 0.00 0.00 0.00 0.00 0.00 0.00 0.00 0.00 0.00 0.00 0.00 0.00 0.00 0.00 0.00 nan nan nan nan nan nan nan nan nan nan
0.00 0.00 0.00 0.00 0.00 0.00 0.03 0.03 0.00 0.00 0.00 0.00 0.00 0.00 0.00 0.00 0.00 0.00 0.00 0.00 0.05 0.00 0.00 0.27 0.04 0.13 0.00 0.00 nan nan nan nan nan nan nan nan nan nan
0.00 0.00 0.01 0.01 nan nan 0.06 0.03 0.00 0.00 nan nan nan nan nan nan nan 0.14 0.31 0.34 0.71 0.00 0.00 0.00 0.11 0.24 0.25 0.22 0.21 nan nan nan nan nan nan nan nan nan
0.05 0.03 nan 0.01 nan nan 0.17 0.10 0.17 0.01 0.01 0.00 0.00 0.01 nan nan nan 0.00 0.03 0.37 0.31 0.29 0.00 0.00 0.00 0.13 0.30 0.22 0.24 0.21 0.21 nan nan nan nan nan nan 0.00
0.24 0.20 0.16 nan nan nan nan 0.22 0.16 0.04 0.05 0.09 0.00 0.00 0.00 0.00 0.00 0.00 0.00 0.05 0.27 0.17 0.00 0.00 0.07 0.06 0.19 0.25 0.25 0.28 0.24 0.26 0.22 0.00 nan nan nan 0.00
0.30 0.27 0.39 nan nan nan 0.13 nan nan 0.10 0.76 0.64 0.47 0.30 0.25 0.20 0.00 0.00 0.01 0.00 0.00 0.04 0.00 0.02 0.39 0.10 0.15 0.30 0.27 0.24 0.27 0.27 0.30 0.11 0.38 nan nan nan
0.67 0.53 nan nan nan 0.42 nan nan 0.19 0.68 0.84 0.86 0.55 0.31 0.20 0.04 0.01 0.11 0.04 0.00 0.00 0.05 0.02 0.04 0.31 0.07 0.20 0.29 0.28 0.37 0.39 0.26 0.54 0.29 0.33 0.38 0.27 0.28
0.25 0.52 0.24 0.40 0.28 0.34 0.36 0.39 0.45 0.47 0.48 0.61 0.41 0.23 0.23 0.37 0.41 0.27 0.39 0.37 0.39 0.32 0.12 0.10 0.06 0.07 0.44 0.22 0.16 0.34 0.27 0.32 0.28 0.27 0.54 0.32 0.31 0.36
0.71 1.21 0.67 0.49 0.47 0.41 0.48 0.47 0.45 0.44 0.57 0.71 0.65 0.48 0.38 0.33 0.37 0.37 0.38 0.38 0.64 0.42 0.32 0.29 0.13 0.20 0.26 0.16 0.72 0.23 0.27 0.26 0.27 0.38 0.46 0.36 0.28 0.26
0.60 0.85 1.48 1.60 0.94 0.51 0.71 0.63 0.59 0.53 0.45 0.56 0.80 0.55 0.53 0.60 0.48 0.55 0.52 0.53 0.55 0.42 0.35 0.25 0.33 0.47 0.44 0.60 0.32 0.23 0.19 0.26 0.25 0.34 0.40 0.58 0.29 0.27
0.86 0.84 1.56 1.81 1.09 0.43 0.49 0.48 0.66 0.69 0.36 0.58 0.74 0.88 0.90 0.67 0.80 0.70 0.81 0.70 0.71 0.43 0.32 0.50 0.49 0.49 0.69 1.29 0.39 nan 0.45 0.31 0.68 0.76 0.50 0.55 0.48 0.37
0.47 0.77 1.08 1.12 0.57 0.41 0.43 0.50 0.60 0.89 0.90 0.74 1.05 1.41 1.56 1.10 1.06 0.75 0.73 0.88 0.64 0.42 0.39 0.23 0.33 0.34 0.52 1.02 1.77 1.41 nan 1.10 0.96 0.94 0.65 0.60 0.53 nan
0.46 0.42 0.93 0.74 0.59 0.46 1.36 1.48 1.84 1.69 1.74 2.19 1.37 1.32 2.91 0.85 0.98 0.75 0.80 0.77 0.70 0.33 0.35 0.34 0.35 0.16 0.31 0.83 3.08 1.54 1.47 nan 0.80 0.74 0.57 0.67 0.47 0.31
0.82 0.50 0.55 0.59 0.86 0.76 1.65 2.53 2.32 2.32 1.66 1.22 2.25 3.34 3.11 1.40 1.17 1.00 1.26 1.23 0.54 0.67 0.37 0.31 0.22 0.16 0.31 0.40 0.57 2.05 0.87 1.00 nan nan nan nan 0.66 0.68
1.44 0.62 0.96 1.25 1.50 1.55 0.69 1.39 0.64 1.43 1.21 1.22 1.17 1.24 5.41 1.30 0.94 1.01 1.12 0.81 0.56 0.60 0.45 0.43 0.27 0.22 0.31 0.27 0.47 0.81 0.68 1.23 0.58 0.59 1.13 nan nan nan
SL_Ratio
nan nan nan nan nan nan nan 5.0 5.1 6.6 6.8 nan nan nan nan nan nan nan nan nan nan nan nan nan nan nan nan nan nan nan nan nan nan nan nan nan nan nan
nan nan nan nan nan nan nan 6.0 5.5 5.9 7.2 3.3 nan nan nan nan nan nan nan nan nan nan nan nan nan nan nan nan nan nan nan nan nan nan nan nan nan nan
nan nan nan nan nan nan nan nan nan 0.0 6.4 5.0 nan nan nan nan nan nan nan nan nan nan nan nan nan nan nan nan nan nan nan nan nan nan nan nan nan nan
nan nan nan nan nan nan nan nan nan nan nan 6.7 nan nan nan nan nan nan nan nan nan nan nan nan nan nan nan nan nan nan nan nan nan nan nan nan nan nan
nan nan nan nan nan nan nan nan nan nan nan nan nan nan nan nan nan nan nan nan nan nan nan nan nan nan nan nan nan nan nan nan nan nan nan nan nan nan
nan nan nan nan nan nan 10.0 7.0 7.3 7.7 7.7 nan nan nan nan nan nan nan nan nan nan nan nan nan nan nan nan nan nan nan nan nan nan nan nan nan nan nan
nan nan nan nan nan nan 6.5 7.2 7.4 7.9 8.0 8.3 8.8 nan nan nan nan nan nan nan nan nan nan nan nan 5.0 nan nan nan nan nan nan nan nan nan nan nan nan
nan nan nan nan 5.0 nan nan nan nan 7.6 8.2 8.6 8.9 8.9 8.6 nan nan nan nan nan nan nan nan nan nan nan nan nan nan nan nan nan nan nan nan nan nan nan
10.0 10.0 nan nan nan 0.0 nan nan nan nan nan 7.3 8.3 nan nan nan nan nan nan nan nan nan nan nan nan nan nan nan nan nan nan nan nan nan nan nan nan nan
nan nan 10.0 10.0 10.0 6.4 7.9 7.9 10.0 nan nan 10.0 7.5 10.0 nan nan nan nan 6.0 6.0 7.3 10.0 nan 7.5 7.3 7.3 nan nan nan nan nan nan nan nan nan nan nan nan
nan 0.0 7.5 7.5 nan nan 7.7 7.6 7.5 nan nan nan nan nan nan nan nan 7.3 7.4 7.6 7.5 7.1 0.0 nan 7.3 7.3 7.3 7.3 7.3 nan nan nan nan nan nan nan nan nan
7.4 7.2 nan 7.5 nan nan 7.6 7.9 7.9 7.6 7.1 7.3 nan 5.5 nan nan nan 5.0 7.2 7.7 7.7 7.7 nan 6.7 5.0 7.3 7.5 7.3 7.2 7.0 7.2 nan nan nan nan nan nan nan
7.6 7.5 7.4 nan nan nan nan 7.9 8.1 8.1 7.5 7.6 10.0 nan nan nan nan nan 0.0 7.2 7.6 7.6 nan 5.0 7.1 7.4 7.4 7.5 7.3 7.3 7.2 7.2 7.2 0.0 nan nan nan nan
8.0 7.6 7.3 nan nan nan 4.3 nan nan 7.3 8.0 8.1 7.8 7.7 7.5 7.4 10.0 7.3 6.8 7.1 6.9 7.3 nan 6.2 7.2 7.4 7.4 7.4 7.4 7.3 7.3 7.2 7.3 7.3 7.2 nan nan nan
7.7 7.9 nan nan nan 3.0 nan nan 3.0 7.9 7.8 8.2 7.8 7.7 7.5 7.6 7.5 7.2 7.2 0.0 6.7 7.2 6.2 6.7 6.9 7.1 7.3 7.5 7.4 7.4 7.3 7.3 7.0 7.0 7.0 7.1 6.9 7.0
4.4 7.8 3.0 6.2 3.0 4.9 6.1 7.6 7.6 7.7 8.1 8.1 7.8 7.7 7.5 7.4 7.3 7.2 7.3 7.3 7.4 7.3 7.2 7.2 7.2 7.2 7.4 7.4 7.4 7.5 7.4 7.4 7.2 7.0 6.5 7.1 6.8 6.6
7.3 9.1 9.8 9.8 9.6 8.3 8.1 7.9 7.8 7.7 8.1 8.4 8.1 7.8 7.6 7.6 7.5 7.4 7.3 7.4 7.4 7.4 7.3 7.2 7.2 7.3 7.2 7.3 7.4 7.4 7.4 7.4 7.3 7.1 6.8 6.8 6.8 6.9
9.5 9.9 9.8 9.8 9.8 9.1 9.7 9.3 9.3 7.7 8.6 8.2 8.1 7.9 7.9 7.8 7.6 7.4 7.2 7.4 7.5 7.4 7.4 7.2 7.1 7.3 7.4 7.4 7.4 7.5 7.4 7.3 7.3 7.2 7.0 7.2 7.3 7.3
9.9 10.0 9.8 9.8 9.8 9.9 9.9 9.9 10.0 9.6 9.1 8.8 8.4 8.4 8.5 8.4 8.0 7.6 7.4 7.4 7.4 7.4 7.4 7.2 7.3 7.4 7.9 8.7 7.6 nan 7.6 7.4 7.4 7.4 7.4 7.3 7.1 7.1
10.1 10.0 9.9 9.8 9.9 9.9 9.9 9.9 9.9 9.8 9.8 9.7 9.3 9.4 9.7 9.4 8.3 8.2 7.7 7.7 7.6 7.5 7.3 7.3 7.4 7.5 7.6 7.8 7.5 8.4 nan 7.7 7.6 7.6 7.4 7.3 7.3 nan
10.1 10.1 9.9 9.9 9.9 9.9 9.8 9.7 9.7 9.7 9.7 9.6 9.7 9.4 9.4 8.7 8.4 8.1 8.3 6.2 5.8 7.5 7.6 7.7 7.5 3.0 7.4 7.4 7.5 7.9 8.1 nan 7.9 7.8 7.7 7.5 7.6 7.7
9.9 9.9 9.9 9.9 9.9 9.9 9.7 9.6 9.6 9.6 9.7 9.7 9.6 9.4 9.4 9.2 9.1 9.1 9.3 8.8 8.0 7.8 7.9 7.5 7.5 7.4 7.5 7.7 7.7 7.8 7.7 7.7 nan nan nan nan 8.3 8.3
9.8 9.9 9.9 9.8 9.8 9.7 9.9 9.8 9.9 9.7 9.8 9.8 9.8 9.7 9.0 9.5 8.9 8.8 8.6 7.9 7.8 8.1 7.8 8.0 7.5 7.5 7.6 7.7 7.7 7.8 8.0 7.8 7.7 7.9 8.3 nan nan nan